STARLINK-2738, 48668

Orbit data source: Space-Track

STARLINK-2738, 48668 is a payload satellite owned by SpaceX/Seattle (US) in LEO that was launched on Wed, 26 May 2021 UTC via an FALCON 9 launch vehicle from the Air Force Eastern Test Range (AFETR). Payload-class satellites include a variety of spacecraft equipped with specific instruments for various scientific and technological missions. These include communications satellites like Starlink; space stations such as the ISS; scientific satellites like the Hubble; Earth observation satellites from companies like Planet Labs, Umbra, and HawkEye 360; GPS; miniature CubeSats for education and research; and military/defense satellites.

Loading next visibility...
Identifier
48668, 2021-044AG
Orbit
LEO
Country
Flag of USUS
Related business
Manufacturer
SpaceX/Seattle
Mission
Operational Commercial Communications
Bus & Motor
STARLINK, Unknown motor
Mass
260 kg wet, ~248 kg dry
Launch date (UTC)
2021-05-26 (5 years ago)
Launch vehicle
FALCON 9
Launch site
Air Force Eastern Test Range (AFETR)
Object type
Payload
Rocket body
Debris
Shape & HBR
Box + 1 Pan, 10.1 m
Radar Cross Section
13.562 m², Large (>1 m²)

Expand to show TLE details & history
Last TLE update: 1 day ago

TLE from 1 day ago
0 STARLINK-2738
1 48668U 21044AG  25349.37573709  .00002543  00000-0  18961-3 0  9999
2 48668  53.0548 130.1164 0001232  94.1867 265.9263 15.06389351251145
Epoch: 2025-12-15T09:01Z
TLE epoch observation values (Epoch: 2025-12-15T09:01:03.684Z)
Latitude
-0.00001°
Longitude
-89.42416°
Altitude
548.184 km
Speed
7.589 km/s
True Right ascension
08h 40m 27s
True Declination
0° 00' 00"
Sunlit
Object was in full shadow at epoch
Visualization orbit readout
Latitude
Unknown
Longitude
Unknown
Altitude
Unknown
Speed
Unknown
Apparent Right ascension
Unknown
Apparent Declination
Unknown
Sunlit
N/A
Visualization observer readout
Local Sidereal Time
10:43:44
Azimuth
Unknown
Elevation
Unknown
Doppler factor
Unknown
Orbital elements
Apogee altitude
548.368 km
Perigee altitude
546.662 km
Semi-major axis
6,925.652 km
Eccentricity
0.00012
Inclination
53.0548°
RAAN
130.1164°
Arg. of periapsis
94.1867°
True anomaly
265.91222°
Mean anomaly
265.9263°
Eccentric anomaly
265.91926°
Mean motion
3.76576 °/min
Orbital period
95.6 mins
BSTAR
0.00018961
Loading maneuver chart data...
Computing Atmospheric mass density...
Loading historical data...
Loading historical data...
Loading historical data...
Loading historical data...
Loading historical data...
Loading historical data...
Loading historical data...

Documentation

Showing up to 5 results
|